Flag for Austria Weather past 2 weeks in Mattersburg, Burgenland, Austria

Now
65 °F

Clear.


Feels Like: 65 °F
Forecast: 64 / 75 °F
Wind: 3 mph from East

Location: Eisenstadt

Current Time: Jul 30, 2014 at 5:51:24 AM

Latest Report: Jul 30, 2014 at 4:00 AM


Visibility: 9 mi

Pressure: 29.71 "Hg

Humidity: 93%

Dew point: 63 °F

Location of MattersburgLocation

Historic Weather in Mattersburg — Graph

°F

Mattersburg temperature yesterday

Maximum temperature yesterday: 79 °F (at 6:00 PM)
Minimum temperature yesterday: 66 °F (at 12:00 AM)
Average temperature yesterday: 71 °F

Past Weeks' High & Low Weather Summary

 TemperatureHumidityPressure
High91 °F (Jul 20, 4:00 PM)97% (Jul 29, 6:00 AM)30.09 "Hg (Jul 29, 6:00 AM)
Low60 °F (Jul 26, 4:00 AM)32% (Jul 17, 5:00 PM)29.65 "Hg (Jul 21, 6:00 PM)
Average73 °F69%29.90 "Hg
* Reported Jul 15 4:00 AM — Jul 30 4:00 AM, Mattersburg, Weather by CustomWeather, © 2014

Note: Actual official high and low records may vary slightly from our data, if they occured in-between our weather recording intervals... More about our weather records

Advertising

Mattersburg weather history for previous 24 hours

 ConditionsComfort  
Time TempWeatherWind HumidityBarometerVisibility
4:00 AM
Jul 30
65 °FClear.3 mph93%29.71 "Hg9 mi
3:00 AM65 °FMild.2 mph90%29.72 "HgN/A
2:00 AM66 °FClear.2 mph87%29.72 "Hg12 mi
1:00 AM66 °FMild.1 mph89%29.72 "HgN/A
12:00 AM68 °FMild.2 mph87%29.72 "HgN/A
11:00 PM
Jul 29
67 °FMild.1 mph90%29.72 "HgN/A
10:00 PM68 °FMild.1 mph87%29.71 "HgN/A
9:00 PM72 °FMild.2 mph72%29.70 "HgN/A
8:00 PM77 °FScattered clouds.5 mph64%29.68 "Hg12 mi
7:00 PM79 °FScattered clouds.7 mph60%29.69 "Hg12 mi
6:00 PM79 °FWarm.5 mph59%29.69 "HgN/A
5:00 PM79 °FPartly sunny.6 mph63%29.70 "Hg11 mi
4:00 PM78 °FWarm.7 mph65%29.71 "HgN/A
3:00 PM78 °FWarm.6 mph65%29.72 "HgN/A
2:00 PM78 °FPartly sunny.5 mph64%29.74 "Hg6 mi
1:00 PM76 °FMild.6 mph72%29.75 "HgN/A
12:00 PM74 °FMild.5 mph77%29.76 "HgN/A
11:00 AM72 °FOvercast.5 mph82%29.77 "Hg4 mi
10:00 AM70 °FMild.3 mph89%29.77 "HgN/A
9:00 AM67 °FMild.2 mph93%29.78 "HgN/A
8:00 AM67 °FOvercast.2 mph95%29.78 "Hg4 mi
7:00 AM66 °FOvercast.2 mph96%29.77 "Hg4 mi
6:00 AM66 °FOvercast.3 mph97%29.77 "Hg4 mi
5:00 AM66 °FMild.3 mph96%29.77 "HgN/A
Weather by CustomWeather, © 2014

See weather overviewHow to use our weather pages